SCP
-0 0 0 0 0 0 0 0 0 0 0 0 0 0 0 0 0 0 0 0 0 0 0 0 0 0 0 0 0 0 0 0 1 1 1 1 1 0 0 0 0 0 0 0
0 0 0 0 0 0 0 0 0 0 0 0 0 0 0 0 0 0 0 0 0 0 0 0 0 0 0 0 0 0 0 0 0 0 0 0 0 0 0 0 0 0 0 0
0 0 0 0 0 0 0 0 0 0 0 0 0 0 0 0 0 0 0 0 0 0 0 0 0 0 0 0 0 0 0 0 0 0 0 0 0 0 0 0 0 0 0 0
0 0 0 0 0 0 0 0 0 0 0 0 0 0 0 0 0 0 0 0 0 0 0 0 0 0 0 0 0 0 0 0 0 0 0 0 0 0 0 0 0 0 0 0
0 0 0 0 0 0 0 0 0 0 0 0 0 0 0 0 0 0 0 0 0 0 0 0 0 0 0 0 0 0 0 0 0 0 0 0 0 0 0 0 0 0 0 0
0 0 0 0 0 0 0 0 0 0 0 0 0 0 0 0 0 0 0 0 0 0 0 0 0 0 0 0 0 0 0 0 0 0 0 0 0 0 0 0 0 0 0 0
0 0 0 0 0 0 0 0 0 0 0 0 0 0 0 0 0 0 0 0 0 0 0 0 0 0 0 0 0 0 0 0 0 0 0 0 0 0 0 0 0 0 0 0
0 0 0 0 0 0 0 0 0 0 0 0 0 0 0 0 0 0 0 0 0 0 0 0 0 0 0 0 0 0 0 0 0 0 0 0 0 0 0 0 0 0 0 0
0 0 0 0 0 0 0 0 0 0 0 0 0 0 0 0 0 0 0 0 0 0 0 0 0 0 0 0 0 0 0 0 0 0 0 0 0 0 0 0 0 0 0 0
0 0 0 0 0 0 0 0 0 0 0 0 0 0 0 0 0 0 0 0 0 0 0 0 0 0 0 0 0 0 0 0 0 0 0 0 0 0 0 0 0 0 0 0
0 0 0 0 0 0 0 0 0 0 0 0 0 0 0 0 0 0 0 0 0 0 0 0 0 0 0 0 0 0 0 0 0 0 0 0 0 0 0 0 0 0 0 0
0 0 0 0 0 0 0 0 0 0 0 0 0 0 0 0 0 0 0 0 0 0 0 0 0 0 0 0 0 0 0 0 0 0 0 0 0 0 0 0 0 0 0 0
0 0 0 0 0 0 0 0 0 0 0 0 0 0 0 0 0 0 0 0 0 0 0 0 0 0 0 0 0 0 0 0 0 0 0 0 0 0 0 0 0 0 0 0
0 0 0 0 0 0 0 0 0 0 0 0 0 0 0 0 0 0 0 0 0 0 0 0 0 0 0 0 0 0 0 0 0 0 0 0 0 0 0 0 0 0 0 0
0 0 0 0 0 0 0 0 0 0 0 0 0 0 0 0 0 0 0 0 0 0 0 0 0 0 0 0 0 0 0 0 0 0 0 0 0 0 0 0 0 0 0 0
0 0 0 0 0 0 0 0 0 0 0 0 0 0 0 0 0 0 0 0 0 0 0 0 0 0 0 0 0 0 0 0 0 0 0 0 0 0 0 0 0 0 0 0
0 0 0 0 0 0 0 0 0 0 0 0 0 0 0 0 0 0 0 0 0 0 0 0 0 0 0 0 0 0 0 0 0 0 0 0 0 0 0 0 0 0 0 0
0 0 0 0 0 0 0 0 0 0 0 0 0 0 0 0 0 0 0 0 0 0 0 0 0 0 0 0 0 0 0 0 0 0 0 0 0 0 0 0 0 0 0 0
0 0 0 0 0 0 0 0 0 0 0 0 0 0 0 0 0 0 0 0 0 0 0 0 0 0 0 0 0 0 0 0 0 0 0 0 0 0 0 0 0 0 0 0
0 0 0 0 0 0 0 0 0 0 0 0 0 0 0 0 0 0 0 0 0 0 0 0 0 0 0 0 0 0 0 0 0 0 0 0 0 0 0 0 0 0 0 0
0 0 0 0 0 0 0 0 0 0 0 0 0 0 0 0 0 0 0 0 0 0 0 0 0 0 0 0 0 0 0 0 0 0 0 0 0 0 0 0 0 0 0 0
0 0 0 0 0 0 0 0 0 0 0 0 0 0 0 0 0 0 0 0 0 0 0 0 0 0 0 0 0 0 0 0 0 0 0 0 0 0 0 0 0 0 0 0
0 0 0 0 0 0 0 0 0 0 0 0 0 0 0 0 0 0 0 0 0 0 0 0 0 0 0 0 0 0 0 0 0 0 0 0 0 0 0 0 0 0 0 0
0 0 0 0 0 0 0 0 0 0 0 0 0 0 0 0 0 0 0 0 0 0 0 0 0 0 0 0 0 0 0 0 0 0 0 0 0 0 0 0 0 0 0 0
0 0 0 0 0 0 0 0 0 0 0 0 0 0 0 0 0 0 0 0 0 0 0 0 0 0 0 0 0 0 0 0 0 0 0 0 0 0 0 0 0 0 0 0
0 0 0 0 0 0 0 0 0 0 0 0 0 0 0 0 0 0 0 0 0 0 0 0 0 0 0 0 0 0 0 0 0 0 0 0 0 0 0 0 0 0 0 0
Wind_Speed
8 10 9 6 5 1 4 5 6 6 4 4 6 8 8 7 6 6 6 6 6 7 7 8 8 8 8 8 7 6 5 5 3 1 0 0 1 1 1 1 2 2 2 2
10 9 5 4 4 5 6 7 7 7 5 3 6 6 6 7 6 5 6 5 5 6 6 7 8 9 9 9 9 7 6 5 4 2 1 1 1 1 2 2 3 3 3 3
9 5 6 6 8 8 8 7 5 6 6 6 7 8 9 7 6 6 5 5 5 5 6 6 8 9 9 9 9 7 7 6 5 3 1 1 1 1 1 2 3 4 4 4
7 5 7 8 8 8 7 4 4 7 9 7 8 6 10 10 9 7 7 6 5 6 6 6 7 8 9 8 8 8 7 7 6 4 2 1 1 1 2 2 3 4 5 5
7 8 9 8 5 6 2 4 6 7 7 6 8 8 6 10 9 9 8 7 6 6 6 7 8 8 8 8 8 7 8 8 7 6 4 3 3 3 3 3 5 4 5 6
5 5 6 4 3 4 5 6 6 8 8 9 5 7 4 6 6 8 10 8 7 7 7 8 8 8 8 8 8 8 9 9 9 8 7 6 6 5 5 5 4 4 4 5
9 8 6 5 7 8 8 8 6 7 8 5 4 6 2 6 3 5 10 9 8 8 7 7 7 7 8 9 8 8 9 10 9 9 9 8 7 6 6 5 5 5 5 5
9 10 8 6 6 5 8 9 7 5 5 2 5 4 5 6 5 5 9 10 9 8 8 8 8 7 8 8 8 8 9 9 9 9 9 8 8 6 6 7 6 5 5 6
5 5 7 4 4 5 7 7 5 7 7 6 3 3 7 6 6 8 10 11 10 9 9 9 8 7 7 7 8 8 9 9 9 9 9 9 8 8 7 7 6 6 6 6
3 4 6 5 6 3 4 3 4 7 6 6 4 5 3 11 11 10 11 11 11 10 9 8 8 8 7 7 7 8 8 9 9 8 8 7 8 8 8 8 9 9 8 8
3 5 6 7 6 4 5 6 6 6 6 7 5 1 6 3 9 12 12 12 12 11 9 8 8 8 7 7 7 7 8 8 8 8 8 8 8 8 9 9 9 8 8 9
1 4 4 4 1 2 5 5 6 7 6 7 7 2 7 3 6 11 13 13 12 11 10 9 9 8 7 7 7 7 7 8 8 8 8 8 8 9 9 9 9 8 8 8
1 4 5 6 6 6 5 4 6 7 6 7 8 1 6 5 8 11 13 13 12 11 10 10 8 7 7 7 7 7 7 7 7 8 8 8 9 9 9 9 9 9 9 9
4 4 5 4 1 2 4 5 6 8 7 7 7 4 4 7 10 12 13 13 12 11 10 10 9 8 7 7 7 7 7 7 7 8 8 9 8 9 9 9 9 9 9 9
4 4 4 3 3 4 5 6 6 8 8 8 7 5 1 8 11 13 14 14 13 12 11 10 9 8 8 7 7 7 7 7 7 8 9 8 8 8 8 9 9 9 9 9
3 4 4 5 4 5 5 4 5 5 6 7 6 2 7 10 11 13 14 14 13 12 11 11 10 9 9 8 7 8 7 7 7 8 8 8 8 8 8 8 9 9 9 9
3 4 5 4 3 6 4 1 3 3 3 5 5 3 9 11 12 14 14 14 14 13 13 12 11 10 9 8 7 7 7 7 7 8 7 8 8 8 8 8 9 9 8 9
5 5 4 4 5 5 4 4 4 3 3 4 4 6 8 10 10 11 12 14 14 14 13 12 11 11 9 8 8 7 7 7 7 7 7 7 7 8 8 8 9 8 8 8
5 5 4 5 5 2 5 4 4 4 3 6 5 9 11 13 11 8 9 11 13 13 12 11 11 11 10 9 8 8 8 7 8 8 7 8 8 8 8 8 8 7 7 7
5 6 6 5 5 1 6 6 5 5 2 6 5 10 12 12 7 8 11 13 13 13 12 11 11 11 10 9 8 8 8 8 8 8 8 7 7 7 8 8 7 7 6 7
4 4 5 5 4 3 7 7 5 4 5 3 4 8 10 6 4 14 15 14 14 13 13 12 12 10 9 9 8 8 8 8 8 8 8 7 7 7 7 7 6 6 6 7
3 1 1 3 2 4 9 6 6 6 3 3 5 7 8 9 14 16 16 16 15 14 14 13 11 10 9 9 9 9 8 8 7 8 8 7 6 6 7 6 6 6 6 7
3 5 4 4 5 6 6 5 4 3 2 4 6 9 11 13 15 16 16 15 15 14 13 12 11 11 9 9 8 9 8 7 7 8 7 7 6 5 5 5 6 5 4 4
2 2 4 2 4 5 5 5 4 3 3 5 8 11 12 14 16 16 15 14 14 13 13 11 12 11 10 9 8 8 8 7 7 8 7 6 6 6 5 3 3 3 4 4
5 4 3 1 3 2 4 5 5 5 7 9 10 11 13 15 16 16 15 14 13 13 12 11 11 11 11 10 9 9 8 7 7 7 6 6 6 6 5 5 6 5 7 6
2 4 5 4 4 4 3 3 4 5 7 10 11 12 13 14 16 15 14 13 13 13 12 11 11 11 11 11 10 9 8 7 7 6 6 5 5 5 5 6 6 8 6 5
Wind_Direction
189 212 204 186 219 257 196 198 171 131 131 183 163 145 146 153 166 153 147 137 119 96 79 62 51 46 45 41 38 39 37 35 35 43 17 121 83 68 61 58 30 0 342 327
196 205 176 164 185 212 207 206 170 137 135 181 157 152 150 161 171 162 155 143 123 104 83 65 56 49 43 37 31 31 30 31 30 36 23 21 42 63 45 43 43 18 1 344
208 146 158 191 194 209 213 218 182 155 152 173 178 179 170 164 168 158 153 140 119 102 85 70 59 50 44 36 28 26 24 23 25 30 73 111 116 119 73 39 37 24 12 7
205 158 189 205 201 217 201 198 203 186 203 185 214 226 167 170 176 176 161 147 126 108 92 76 63 52 44 36 33 31 28 29 26 24 43 75 88 70 42 34 37 30 24 19
178 178 199 206 193 221 162 163 205 216 233 227 207 251 156 170 189 184 171 157 136 114 95 80 67 57 49 40 39 39 38 38 35 39 48 65 70 67 61 58 55 43 38 32
177 184 214 201 176 195 161 180 193 221 229 233 214 249 191 168 198 177 166 159 140 119 101 86 76 66 56 48 47 46 47 44 42 46 49 57 70 73 72 62 55 51 46 39
180 182 182 195 181 177 206 215 212 213 220 220 160 250 81 106 117 158 159 151 138 125 112 96 82 71 61 53 48 50 55 50 48 52 53 53 60 65 64 60 55 51 49 44
190 179 174 192 222 202 213 240 253 254 244 208 184 231 95 104 103 123 137 136 130 123 110 95 82 72 65 60 56 57 60 59 54 56 57 54 53 59 61 57 60 56 49 47
208 165 148 175 216 242 212 234 292 277 266 263 211 154 137 142 143 140 136 137 134 123 111 101 92 82 72 65 60 61 65 67 62 61 63 61 60 60 63 65 63 61 58 58
236 194 166 163 188 186 278 234 237 256 265 268 241 228 185 173 175 163 154 149 137 128 118 110 101 91 83 79 74 69 68 70 70 68 66 67 64 65 64 65 64 63 62 62
236 223 183 191 218 200 194 210 246 268 283 282 279 323 54 132 169 170 163 152 142 137 128 118 108 101 96 90 85 83 78 75 74 74 75 74 70 69 69 67 65 64 65 65
231 253 214 188 116 297 255 251 244 260 262 266 282 47 72 82 148 155 151 143 139 135 129 121 116 113 107 98 91 85 81 80 79 78 77 77 76 72 70 69 67 68 66 67
246 234 217 188 180 193 223 231 251 263 270 267 273 64 101 115 130 141 143 139 138 136 133 126 121 115 108 102 98 94 90 86 85 86 84 80 77 75 73 71 68 69 70 68
270 251 262 266 271 229 235 234 240 252 263 273 282 315 137 140 139 141 142 142 141 140 137 133 127 122 115 111 105 102 97 96 94 91 87 81 78 76 74 71 69 69 71 73
288 250 259 281 283 263 260 258 247 254 278 288 303 318 70 152 153 148 146 145 144 145 144 139 132 128 123 118 112 108 105 102 101 97 92 88 85 82 79 75 73 72 72 74
317 273 255 244 240 251 254 262 258 261 280 287 293 352 84 125 136 145 151 152 152 152 148 142 136 134 131 127 120 116 111 108 104 100 96 93 90 87 83 78 76 74 72 71
275 264 266 259 253 249 223 327 310 304 323 310 315 78 129 139 150 156 158 159 156 153 150 148 145 140 133 129 127 123 117 113 108 103 99 97 94 92 90 87 82 78 76 75
270 268 265 268 255 241 75 40 346 333 28 14 51 108 134 136 140 149 158 157 152 152 151 149 145 137 135 134 130 123 119 116 109 105 102 99 97 92 90 86 83 83 82 78
232 262 265 264 255 202 109 51 354 324 57 48 84 112 118 122 121 129 149 151 150 148 145 143 140 138 139 137 131 126 122 120 117 112 107 104 102 100 97 90 87 85 86 84
182 236 257 258 272 292 66 20 344 285 124 68 110 135 143 159 163 147 149 142 138 138 140 139 140 141 142 141 140 135 130 122 115 111 109 106 105 102 98 95 93 92 92 90
185 206 238 257 264 79 36 348 300 295 39 63 134 150 162 174 92 128 140 138 137 138 140 142 142 143 142 144 143 137 128 120 115 115 114 111 108 108 106 103 101 104 100 92
325 291 249 270 272 69 19 0 19 20 22 105 136 146 140 112 114 129 136 138 139 141 144 144 142 141 143 147 145 134 122 119 120 120 117 114 113 110 109 109 108 107 112 115
355 1 344 352 30 48 28 24 22 357 68 120 136 138 133 130 133 135 137 139 143 145 145 146 145 142 145 149 144 132 126 126 123 119 117 115 110 103 107 113 118 124 125 115
59 355 302 317 71 52 48 46 39 42 80 118 134 139 140 138 139 139 140 143 145 146 147 150 149 146 146 146 140 132 130 129 128 123 120 122 118 113 102 101 99 95 95 97
328 311 300 300 52 70 72 47 50 73 100 120 130 135 139 140 143 143 143 145 146 147 149 151 150 148 145 146 142 137 134 135 130 125 125 126 118 108 104 83 52 47 59 38
311 326 330 9 20 348 41 51 77 108 120 129 133 134 140 144 143 143 144 145 147 149 151 151 150 149 147 147 142 139 142 140 137 136 137 132 127 124 125 123 111 59 57 68